Retour au catalogue

COSMOS 1275 DEB

ActifPO
NORAD 42128·DEBRIS·🇷🇺 Russia

Lancé Jun 4, 1981 depuis Plesetsk Cosmodrome

Loading…

Prochains Passages (prochaines 24 heures)

TLE

FraisSource: Space-Track

Époque: Sep 11, 2026, 09:51 UTC

1 42128U 81053QQ  26254.41067341  .00000553  00000-0  38254-3 0  9997
2 42128  82.9246 271.5806 0025689  38.5520  27.9888 13.97244480651884

Suivez COSMOS 1275 DEB en temps réel avec AllMySat

Download on the App Store